Tracking 35275 objects as of 8-Sep-2026
HD Live streaming from Space Station
objects crossing your sky now

STARLINK-31968

Track STARLINK-31968 now!
10-day predictions
STARLINK-31968 is classified as:


NORAD ID: 59927
Int'l Code: 2024-106F
Launch date: June 1, 2024
Source: United States (US)
Launch site: AIR FORCE EASTERN TEST RANGE (AFETR)
Your satellite tracking list
Your tracking list is empty




NASA's NSSDC Master Catalog

Two Line Element Set (TLE):
1 59927U 24106F   26250.38345494 -.00002840  00000-0 -93785-4 0  9992
2 59927  43.0039  26.1421 0001644 269.5262  90.5401 15.27553305128361
Source of the keplerian elements: AFSPC